| time (UTC) | temp F | wind direction | speed knots | gust knots | rain 1hr in | rain 24hr in | rain mn in | humidity % | barometer mb |
| 20260906062004 | 50 | 223 | 2.6 | 5.2 | 0.00 | 0.00 | 0.00 | 75 | 1024.1 |
| 20260906061439 | 51 | 187 | 2.6 | 5.2 | 0.00 | 0.00 | 0.00 | 75 | 1024.1 |
| 20260906060923 | 51 | 240 | 1.7 | 5.2 | 0.00 | 0.00 | 0.00 | 75 | 1024.1 |
| 20260906060651 | 51 | 250 | 1.7 | 4.3 | 0.00 | 0.00 | 0.00 | 76 | 1024.0 |
| 20260906055921 | 51 | 251 | 2.6 | 4.3 | 0.00 | 0.00 | 0.00 | 76 | 1024.0 |
| 20260906055418 | 51 | 236 | 1.7 | 4.3 | 0.00 | 0.00 | 0.00 | 76 | 1024.0 |
| 20260906054916 | 51 | 260 | 1.7 | 7.0 | 0.00 | 0.00 | 0.00 | 76 | 1024.0 |
| 20260906054350 | 51 | 276 | 2.6 | 7.0 | 0.00 | 0.00 | 0.00 | 76 | 1024.0 |
| 20260906053825 | 51 | 212 | 2.6 | 7.8 | 0.00 | 0.00 | 0.00 | 77 | 1024.0 |
| 20260906053323 | 51 | 251 | 2.6 | 7.8 | 0.00 | 0.00 | 0.00 | 79 | 1023.9 |
| 20260906052810 | 51 | 253 | 2.6 | 6.1 | 0.00 | 0.00 | 0.00 | 81 | 1023.8 |
| 20260906052241 | 51 | 211 | 2.6 | 6.1 | 0.00 | 0.00 | 0.00 | 82 | 1023.6 |
| 20260906051717 | 51 | 269 | 2.6 | 5.2 | 0.00 | 0.00 | 0.00 | 84 | 1023.6 |
| 20260906051206 | 50 | 229 | 2.6 | 5.2 | 0.00 | 0.00 | 0.00 | 87 | 1023.4 |
| 20260906050638 | 50 | 243 | 1.7 | 5.2 | 0.00 | 0.00 | 0.00 | 91 | 1023.2 |
| 20260906050136 | 50 | 258 | 0.9 | 1.7 | 0.00 | 0.00 | 0.00 | 93 | 1023.1 |
| 20260906045607 | 50 | 249 | 0.0 | 1.7 | 0.00 | 0.00 | 0.00 | 94 | 1023.0 |
| 20260906045336 | 50 | 249 | 0.0 | 0.0 | 0.00 | 0.00 | 0.00 | 94 | 1023.0 |
| 20260906044547 | 50 | 249 | 0.0 | 0.0 | 0.00 | 0.00 | 0.00 | 94 | 1023.1 |
| 20260906044047 | 50 | 249 | 0.0 | 0.0 | 0.00 | 0.00 | 0.00 | 94 | 1022.8 |
| 20260906043545 | 50 | 249 | 0.0 | 1.7 | 0.00 | 0.00 | 0.00 | 94 | 1022.8 |
| 20260906043047 | 50 | 249 | 0.9 | 1.7 | 0.00 | 0.00 | 0.00 | 93 | 1022.7 |
| 20260906042750 | 49 | 286 | 0.0 | 0.9 | 0.00 | 0.00 | 0.00 | 93 | 1022.6 |
| 20260906042018 | 49 | 286 | 0.0 | 0.0 | 0.00 | 0.00 | 0.00 | 93 | 1022.5 |
| 20260906041514 | 49 | 286 | 0.0 | 0.0 | 0.00 | 0.00 | 0.00 | 93 | 1022.4 |
| 20260906041015 | 50 | 286 | 0.0 | 0.9 | 0.00 | 0.00 | 0.00 | 93 | 1022.4 |
| 20260906040449 | 50 | 286 | 0.0 | 1.7 | 0.00 | 0.00 | 0.00 | 93 | 1022.3 |
| 20260906035946 | 50 | 286 | 0.0 | 1.7 | 0.00 | 0.00 | 0.00 | 93 | 1022.4 |
| 20260906035448 | 50 | 286 | 0.0 | 0.9 | 0.00 | 0.00 | 0.00 | 93 | 1022.3 |
| 20260906034941 | 50 | 286 | 0.0 | 0.9 | 0.00 | 0.00 | 0.00 | 93 | 1022.2 |
| 20260906034712 | 50 | 286 | 0.0 | 0.0 | 0.00 | 0.00 | 0.00 | 93 | 1022.2 |
| 20260906033940 | 50 | 286 | 0.0 | 0.0 | 0.00 | 0.00 | 0.00 | 93 | 1022.2 |
| 20260906033417 | 50 | 286 | 0.0 | 0.0 | 0.00 | 0.00 | 0.00 | 93 | 1022.2 |
| 20260906032912 | 50 | 286 | 0.0 | 0.9 | 0.00 | 0.00 | 0.00 | 93 | 1022.1 |
| 20260906032349 | 50 | 286 | 0.0 | 0.9 | 0.00 | 0.00 | 0.00 | 92 | 1022.2 |
| 20260906031826 | 50 | 286 | 0.0 | 0.9 | 0.00 | 0.00 | 0.00 | 92 | 1022.2 |
| 20260906031255 | 50 | 286 | 0.0 | 0.9 | 0.00 | 0.00 | 0.00 | 92 | 1022.1 |
| 20260906030752 | 50 | 286 | 0.0 | 0.0 | 0.00 | 0.00 | 0.00 | 92 | 1022.1 |
| 20260906030249 | 50 | 286 | 0.0 | 0.9 | 0.00 | 0.00 | 0.00 | 92 | 1021.9 |
| 20260906025744 | 50 | 286 | 0.0 | 0.9 | 0.00 | 0.00 | 0.00 | 91 | 1021.9 |
| 20260906025216 | 50 | 286 | 0.0 | 0.9 | 0.00 | 0.00 | 0.00 | 90 | 1021.9 |
| 20260906024944 | 50 | 286 | 0.0 | 1.7 | 0.00 | 0.00 | 0.00 | 90 | 1022.0 |
| 20260906024211 | 51 | 286 | 0.0 | 0.9 | 0.00 | 0.00 | 0.00 | 89 | 1021.8 |
| 20260906023933 | 51 | 286 | 0.9 | 1.7 | 0.00 | 0.00 | 0.00 | 90 | 1021.6 |
| 20260906023158 | 51 | 286 | 0.0 | 1.7 | 0.00 | 0.00 | 0.00 | 90 | 1021.7 |
| 20260906022630 | 51 | 141 | 0.0 | 0.0 | 0.00 | 0.00 | 0.00 | 90 | 1021.8 |
| 20260906022351 | 51 | 141 | 0.0 | 0.9 | 0.00 | 0.00 | 0.00 | 90 | 1021.6 |
| 20260906021617 | 51 | 141 | 0.0 | 0.9 | 0.00 | 0.00 | 0.00 | 91 | 1021.5 |
| 20260906021105 | 52 | 141 | 0.0 | 0.0 | 0.00 | 0.00 | 0.00 | 91 | 1021.5 |
| 20260906020604 | 52 | 141 | 0.0 | 0.0 | 0.00 | 0.00 | 0.00 | 90 | 1021.4 |
| 20260906020104 | 52 | 141 | 0.0 | 0.0 | 0.00 | 0.00 | 0.00 | 90 | 1021.4 |
| 20260906015536 | 52 | 141 | 0.0 | 0.0 | 0.00 | 0.00 | 0.00 | 89 | 1021.3 |
| 20260906015033 | 52 | 141 | 0.0 | 1.7 | 0.00 | 0.00 | 0.00 | 89 | 1021.0 |
| 20260906014522 | 52 | 141 | 0.0 | 1.7 | 0.00 | 0.00 | 0.00 | 88 | 1021.2 |
| 20260906014020 | 52 | 101 | 0.0 | 0.0 | 0.00 | 0.00 | 0.00 | 88 | 1021.2 |
| 20260906013506 | 52 | 101 | 0.0 | 1.7 | 0.00 | 0.00 | 0.00 | 88 | 1021.1 |
| 20260906013005 | 52 | 101 | 0.9 | 1.7 | 0.00 | 0.00 | 0.00 | 88 | 1021.0 |
| 20260906012453 | 52 | 177 | 0.9 | 1.7 | 0.00 | 0.00 | 0.00 | 89 | 1020.9 |
| 20260906011952 | 52 | 177 | 0.9 | 2.6 | 0.00 | 0.00 | 0.00 | 89 | 1020.9 |
| 20260906011452 | 52 | 147 | 0.9 | 5.2 | 0.00 | 0.00 | 0.00 | 89 | 1021.0 |
| 20260906010946 | 52 | 172 | 0.9 | 5.2 | 0.00 | 0.00 | 0.00 | 89 | 1020.9 |
| 20260906010715 | 52 | 299 | 0.0 | 0.9 | 0.00 | 0.00 | 0.00 | 89 | 1020.8 |
| 20260906005917 | 52 | 299 | 0.0 | 0.9 | 0.00 | 0.00 | 0.00 | 88 | 1020.7 |
| 20260906005410 | 53 | 299 | 0.9 | 1.7 | 0.00 | 0.00 | 0.00 | 88 | 1020.7 |
| 20260906004907 | 53 | 298 | 0.9 | 2.6 | 0.00 | 0.00 | 0.00 | 88 | 1020.5 |
| 20260906004343 | 53 | 245 | 0.9 | 2.6 | 0.00 | 0.00 | 0.00 | 88 | 1020.5 |
| 20260906004108 | 53 | 285 | 0.9 | 4.3 | 0.00 | 0.00 | 0.00 | 88 | 1020.4 |
| 20260906003311 | 53 | 149 | 0.9 | 4.3 | 0.00 | 0.00 | 0.00 | 88 | 1020.4 |
| 20260906002808 | 53 | 248 | 0.9 | 3.5 | 0.00 | 0.00 | 0.00 | 88 | 1020.3 |
| 20260906002240 | 53 | 245 | 1.7 | 3.5 | 0.00 | 0.00 | 0.00 | 89 | 1020.2 |
| 20260906001711 | 53 | 291 | 1.7 | 4.3 | 0.00 | 0.00 | 0.00 | 91 | 1020.0 |
| 20260906001209 | 53 | 212 | 1.7 | 3.5 | 0.00 | 0.00 | 0.00 | 91 | 1020.1 |
| 20260906000640 | 53 | 187 | 0.9 | 1.7 | 0.00 | 0.00 | 0.00 | 89 | 1019.7 |
| 20260906000403 | 53 | 272 | 0.0 | 0.9 | 0.00 | 0.00 | 0.00 | 88 | 1019.6 |
| 20260905235858 | 53 | 272 | 0.0 | 0.0 | 0.00 | 0.00 | 0.00 | 87 | 1019.5 |
| 20260905235125 | 53 | 272 | 0.0 | 0.0 | 0.00 | 0.00 | 0.00 | 87 | 1019.5 |
| 20260905234615 | 54 | 272 | 0.0 | 1.7 | 0.00 | 0.00 | 0.00 | 87 | 1019.4 |
| 20260905234112 | 54 | 272 | 0.0 | 1.7 | 0.00 | 0.00 | 0.00 | 87 | 1019.3 |
| 20260905233545 | 54 | 272 | 0.0 | 0.9 | 0.00 | 0.00 | 0.00 | 87 | 1019.3 |
| 20260905233039 | 54 | 271 | 0.0 | 0.0 | 0.00 | 0.00 | 0.00 | 85 | 1019.1 |
| 20260905232539 | 54 | 271 | 0.0 | 0.9 | 0.00 | 0.00 | 0.00 | 85 | 1019.1 |
| 20260905232013 | 55 | 272 | 0.0 | 1.7 | 0.00 | 0.00 | 0.00 | 85 | 1019.1 |
| 20260905231443 | 55 | 271 | 0.9 | 1.7 | 0.00 | 0.00 | 0.00 | 85 | 1018.9 |
| 20260905230914 | 55 | 272 | 0.9 | 1.7 | 0.00 | 0.00 | 0.00 | 85 | 1018.9 |
| 20260905230413 | 55 | 305 | 0.0 | 1.7 | 0.00 | 0.00 | 0.00 | 84 | 1018.9 |
| 20260905230119 | 56 | 305 | 0.0 | 1.7 | 0.00 | 0.00 | 0.00 | 83 | 1018.7 |
| 20260905225317 | 56 | 305 | 0.0 | 1.7 | 0.00 | 0.00 | 0.00 | 83 | 1018.8 |
| 20260905224808 | 56 | 305 | 0.0 | 1.7 | 0.00 | 0.00 | 0.00 | 81 | 1018.6 |
| 20260905224801 | 56 | 305 | 0.0 | 0.9 | 0.00 | 0.00 | 0.00 | 81 | 1018.7 |
| 20260905223801 | 56 | 305 | 0.0 | 1.7 | 0.00 | 0.00 | 0.00 | 82 | 1018.6 |
| 20260905223507 | 56 | 305 | 0.0 | 0.9 | 0.00 | 0.00 | 0.00 | 80 | 1018.6 |
| 20260905222711 | 57 | 305 | 0.9 | 2.6 | 0.00 | 0.00 | 0.00 | 80 | 1018.5 |
| 20260905222144 | 57 | 295 | 0.9 | 2.6 | 0.00 | 0.00 | 0.00 | 80 | 1018.4 |
| 20260905221612 | 57 | 289 | 0.9 | 1.7 | 0.00 | 0.00 | 0.00 | 80 | 1018.4 |
| 20260905221049 | 57 | 283 | 0.9 | 1.7 | 0.00 | 0.00 | 0.00 | 78 | 1018.3 |
| 20260905221023 | 58 | 303 | 0.9 | 1.7 | 0.00 | 0.00 | 0.00 | 79 | 1018.3 |
| 20260905220009 | 58 | 303 | 0.9 | 1.7 | 0.00 | 0.00 | 0.00 | 78 | 1018.2 |
| 20260905215511 | 58 | 303 | 1.7 | 2.6 | 0.00 | 0.00 | 0.00 | 78 | 1018.3 |
| 20260905215002 | 58 | 301 | 0.9 | 1.7 | 0.00 | 0.00 | 0.00 | 77 | 1018.2 |
| 20260905214501 | 58 | 297 | 1.7 | 2.6 | 0.00 | 0.00 | 0.00 | 77 | 1018.1 |
| 20260905214230 | 59 | 303 | 0.9 | 2.6 | 0.00 | 0.00 | 0.00 | 79 | 1018.1 |
| 20260905213447 | 59 | 303 | 0.9 | 1.7 | 0.00 | 0.00 | 0.00 | 78 | 1018.0 |
| 20260905212947 | 59 | 295 | 0.9 | 1.7 | 0.00 | 0.00 | 0.00 | 76 | 1018.1 |
| 20260905212423 | 59 | 295 | 0.9 | 1.7 | 0.00 | 0.00 | 0.00 | 76 | 1018.0 |
| 20260905211920 | 60 | 318 | 0.9 | 2.6 | 0.00 | 0.00 | 0.00 | 77 | 1017.7 |
| 20260905211411 | 60 | 299 | 0.9 | 1.7 | 0.00 | 0.00 | 0.00 | 75 | 1017.6 |
| 20260905210856 | 61 | 295 | 0.9 | 1.7 | 0.00 | 0.00 | 0.00 | 74 | 1017.6 |
| 20260905210324 | 62 | 295 | 0.9 | 1.7 | 0.00 | 0.00 | 0.00 | 72 | 1017.7 |
| 20260905205314 | 63 | 295 | 0.9 | 2.6 | 0.00 | 0.00 | 0.00 | 68 | 1017.5 |
| 20260905204755 | 63 | 295 | 0.9 | 2.6 | 0.00 | 0.00 | 0.00 | 64 | 1017.6 |
| 20260905204513 | 64 | 268 | 0.9 | 2.6 | 0.00 | 0.00 | 0.00 | 62 | 1017.5 |
| 20260905203721 | 64 | 293 | 0.9 | 1.7 | 0.00 | 0.00 | 0.00 | 65 | 1017.6 |
| 20260905203215 | 65 | 293 | 0.9 | 1.7 | 0.00 | 0.00 | 0.00 | 64 | 1017.5 |
| 20260905202946 | 65 | 274 | 0.0 | 1.7 | 0.00 | 0.00 | 0.00 | 63 | 1017.2 |
| 20260905202215 | 65 | 281 | 0.0 | 1.7 | 0.00 | 0.00 | 0.00 | 63 | 1017.2 |
| 20260905201652 | 65 | 235 | 0.9 | 1.7 | 0.00 | 0.00 | 0.00 | 58 | 1017.2 |
| 20260905201125 | 65 | 212 | 0.9 | 2.6 | 0.00 | 0.00 | 0.00 | 56 | 1017.1 |
| 20260905200602 | 65 | 257 | 1.7 | 3.5 | 0.00 | 0.00 | 0.00 | 57 | 1017.2 |
| 20260905200038 | 65 | 263 | 1.7 | 7.0 | 0.00 | 0.00 | 0.00 | 57 | 1016.9 |
| 20260905195518 | 65 | 253 | 2.6 | 7.0 | 0.00 | 0.00 | 0.00 | 56 | 1016.7 |
| 20260905194959 | 65 | 267 | 2.6 | 7.8 | 0.00 | 0.00 | 0.00 | 55 | 1016.9 |
| 20260905194455 | 66 | 260 | 2.6 | 7.8 | 0.00 | 0.00 | 0.00 | 56 | 1016.8 |
| 20260905193954 | 66 | 269 | 1.7 | 5.2 | 0.00 | 0.00 | 0.00 | 54 | 1016.8 |
| 20260905193452 | 66 | 249 | 1.7 | 4.3 | 0.00 | 0.00 | 0.00 | 58 | 1016.7 |
| 20260905192952 | 66 | 268 | 1.7 | 4.3 | 0.00 | 0.00 | 0.00 | 55 | 1016.6 |
| 20260905192725 | 65 | 274 | 2.6 | 5.2 | 0.00 | 0.00 | 0.00 | 56 | 1016.6 |
| 20260905192205 | 65 | 297 | 3.5 | 7.8 | 0.00 | 0.00 | 0.00 | 53 | 1016.5 |
| 20260905191406 | 65 | 273 | 3.5 | 7.8 | 0.00 | 0.00 | 0.00 | 54 | 1016.5 |
| 20260905190842 | 66 | 177 | 2.6 | 7.0 | 0.00 | 0.00 | 0.00 | 54 | 1016.4 |
| 20260905190316 | 66 | 278 | 2.6 | 5.2 | 0.00 | 0.00 | 0.00 | 56 | 1016.2 |
| 20260905185803 | 66 | 220 | 2.6 | 7.0 | 0.00 | 0.00 | 0.00 | 51 | 1016.2 |
| 20260905185306 | 67 | 255 | 2.6 | 7.8 | 0.00 | 0.00 | 0.00 | 53 | 1016.1 |
| 20260905184738 | 67 | 206 | 2.6 | 7.8 | 0.00 | 0.00 | 0.00 | 49 | 1016.1 |
| 20260905184227 | 68 | 201 | 3.5 | 8.7 | 0.00 | 0.00 | 0.00 | 50 | 1016.1 |
| 20260905183700 | 68 | 228 | 4.3 | 8.7 | 0.00 | 0.00 | 0.00 | 50 | 1016.0 |
| 20260905183147 | 68 | 326 | 4.3 | 11.3 | 0.00 | 0.00 | 0.00 | 52 | 1016.0 |
| 20260905182647 | 68 | 287 | 1.7 | 11.3 | 0.00 | 0.00 | 0.00 | 53 | 1016.0 |
| 20260905182118 | 68 | 47 | 1.7 | 7.8 | 0.00 | 0.00 | 0.00 | 58 | 1016.1 |
| 20260905181835 | 67 | 340 | 2.6 | 7.8 | 0.00 | 0.00 | 0.00 | 57 | 1016.1 |
| 20260905181105 | 67 | 321 | 3.5 | 7.8 | 0.00 | 0.00 | 0.00 | 60 | 1016.1 |
| 20260905180604 | 67 | 320 | 3.5 | 7.8 | 0.00 | 0.00 | 0.00 | 56 | 1016.1 |
| 20260905180038 | 68 | 271 | 2.6 | 7.8 | 0.00 | 0.00 | 0.00 | 55 | 1016.1 |
| 20260905175524 | 68 | 276 | 2.6 | 7.8 | 0.00 | 0.00 | 0.00 | 56 | 1016.1 |
| 20260905175025 | 68 | 280 | 1.7 | 8.7 | 0.00 | 0.00 | 0.00 | 60 | 1016.1 |
| 20260905174454 | 68 | 283 | 1.7 | 8.7 | 0.00 | 0.00 | 0.00 | 58 | 1016.1 |
| 20260905173930 | 67 | 177 | 2.6 | 7.8 | 0.00 | 0.00 | 0.00 | 58 | 1016.2 |
| 20260905173402 | 67 | 297 | 2.6 | 7.8 | 0.00 | 0.00 | 0.00 | 58 | 1016.1 |
| 20260905172835 | 67 | 310 | 2.6 | 6.1 | 0.00 | 0.00 | 0.00 | 61 | 1016.3 |
| 20260905172310 | 67 | 318 | 1.7 | 6.1 | 0.00 | 0.00 | 0.00 | 59 | 1016.3 |
| 20260905171758 | 67 | 293 | 2.6 | 5.2 | 0.00 | 0.00 | 0.00 | 64 | 1016.3 |
| 20260905171254 | 67 | 164 | 2.6 | 7.0 | 0.00 | 0.00 | 0.00 | 58 | 1016.3 |
| 20260905170755 | 67 | 237 | 2.6 | 7.0 | 0.00 | 0.00 | 0.00 | 61 | 1016.4 |
| 20260905170255 | 67 | 115 | 1.7 | 7.0 | 0.00 | 0.00 | 0.00 | 59 | 1016.5 |
| 20260905165753 | 66 | 251 | 1.7 | 7.0 | 0.00 | 0.00 | 0.00 | 62 | 1016.7 |
| 20260905165229 | 66 | 213 | 1.7 | 6.1 | 0.00 | 0.00 | 0.00 | 61 | 1016.7 |
| 20260905164729 | 65 | 311 | 2.6 | 7.8 | 0.00 | 0.00 | 0.00 | 63 | 1016.7 |
| 20260905164445 | 65 | 304 | 3.5 | 7.8 | 0.00 | 0.00 | 0.00 | 63 | 1017.0 |
| 20260905163712 | 65 | 235 | 3.5 | 7.0 | 0.00 | 0.00 | 0.00 | 63 | 1016.9 |
| 20260905163211 | 65 | 251 | 2.6 | 7.0 | 0.00 | 0.00 | 0.00 | 63 | 1016.8 |
| 20260905162912 | 65 | 322 | 2.6 | 8.7 | 0.00 | 0.00 | 0.00 | 63 | 1016.9 |
| 20260905162115 | 66 | 253 | 2.6 | 8.7 | 0.00 | 0.00 | 0.00 | 65 | 1016.7 |
| 20260905161553 | 65 | 272 | 2.6 | 7.0 | 0.00 | 0.00 | 0.00 | 64 | 1016.8 |
| 20260905161035 | 65 | 269 | 2.6 | 7.0 | 0.00 | 0.00 | 0.00 | 67 | 1016.9 |
| 20260905160530 | 65 | 140 | 1.7 | 7.0 | 0.00 | 0.00 | 0.00 | 67 | 1016.9 |
| 20260905160028 | 65 | 113 | 1.7 | 5.2 | 0.00 | 0.00 | 0.00 | 69 | 1017.0 |
| 20260905155731 | 64 | 280 | 3.5 | 7.8 | 0.00 | 0.00 | 0.00 | 67 | 1017.0 |
| 20260905155228 | 64 | 285 | 3.5 | 8.7 | 0.00 | 0.00 | 0.00 | 68 | 1017.1 |
| 20260905154429 | 64 | 255 | 2.6 | 8.7 | 0.00 | 0.00 | 0.00 | 68 | 1017.0 |
| 20260905153926 | 64 | 138 | 2.6 | 7.0 | 0.00 | 0.00 | 0.00 | 68 | 1017.1 |
| 20260905153415 | 64 | 258 | 2.6 | 7.0 | 0.00 | 0.00 | 0.00 | 66 | 1017.3 |
| 20260905152850 | 64 | 279 | 4.3 | 12.2 | 0.00 | 0.00 | 0.00 | 71 | 1017.4 |
| 20260905152323 | 64 | 264 | 3.5 | 12.2 | 0.00 | 0.00 | 0.00 | 71 | 1017.5 |
| 20260905151809 | 64 | 239 | 3.5 | 9.6 | 0.00 | 0.00 | 0.00 | 73 | 1017.6 |
| 20260905151305 | 64 | 122 | 2.6 | 9.6 | 0.00 | 0.00 | 0.00 | 70 | 1017.5 |
| 20260905150803 | 64 | 193 | 2.6 | 5.2 | 0.00 | 0.00 | 0.00 | 73 | 1017.7 |
| 20260905150248 | 64 | 145 | 2.6 | 5.2 | 0.00 | 0.00 | 0.00 | 71 | 1017.8 |
| 20260905145750 | 64 | 281 | 1.7 | 5.2 | 0.00 | 0.00 | 0.00 | 71 | 1017.8 |
| 20260905145225 | 64 | 232 | 2.6 | 7.0 | 0.00 | 0.00 | 0.00 | 71 | 1017.8 |
| 20260905144713 | 63 | 332 | 3.5 | 7.0 | 0.00 | 0.00 | 0.00 | 74 | 1017.9 |
| 20260905144211 | 63 | 293 | 2.6 | 7.0 | 0.00 | 0.00 | 0.00 | 75 | 1018.0 |
| 20260905143658 | 63 | 269 | 2.6 | 7.0 | 0.00 | 0.00 | 0.00 | 74 | 1018.0 |
| 20260905143157 | 63 | 43 | 1.7 | 2.6 | 0.00 | 0.00 | 0.00 | 79 | 1018.0 |
| 20260905142632 | 62 | 47 | 1.7 | 4.3 | 0.00 | 0.00 | 0.00 | 77 | 1018.0 |
| 20260905142133 | 62 | 232 | 1.7 | 4.3 | 0.00 | 0.00 | 0.00 | 76 | 1018.0 |
| 20260905141632 | 62 | 203 | 1.7 | 4.3 | 0.00 | 0.00 | 0.00 | 77 | 1018.2 |
| 20260905141402 | 62 | 296 | 1.7 | 5.2 | 0.00 | 0.00 | 0.00 | 77 | 1018.2 |
| 20260905140630 | 62 | 280 | 1.7 | 5.2 | 0.00 | 0.00 | 0.00 | 75 | 1018.2 |
| 20260905140128 | 62 | 280 | 1.7 | 4.3 | 0.00 | 0.00 | 0.00 | 77 | 1018.3 |
| 20260905135601 | 63 | 227 | 1.7 | 4.3 | 0.00 | 0.00 | 0.00 | 77 | 1018.4 |
| 20260905135056 | 63 | 127 | 1.7 | 3.5 | 0.00 | 0.00 | 0.00 | 78 | 1018.4 |
| 20260905134527 | 62 | 107 | 0.9 | 3.5 | 0.00 | 0.00 | 0.00 | 81 | 1018.4 |
| 20260905134025 | 62 | 150 | 0.9 | 4.3 | 0.00 | 0.00 | 0.00 | 80 | 1018.4 |
| 20260905133518 | 61 | 102 | 0.9 | 4.3 | 0.00 | 0.00 | 0.00 | 82 | 1018.5 |
| 20260905132950 | 60 | 6 | 0.0 | 1.7 | 0.00 | 0.00 | 0.00 | 84 | 1018.5 |
| 20260905132422 | 60 | 6 | 0.9 | 1.7 | 0.00 | 0.00 | 0.00 | 85 | 1018.5 |
| 20260905131922 | 60 | 310 | 0.9 | 6.1 | 0.00 | 0.00 | 0.00 | 86 | 1018.5 |
| 20260905131422 | 59 | 221 | 0.9 | 6.1 | 0.00 | 0.00 | 0.00 | 87 | 1018.5 |
| 20260905130923 | 59 | 249 | 0.0 | 3.5 | 0.00 | 0.00 | 0.00 | 89 | 1018.4 |
| 20260905130420 | 58 | 210 | 0.0 | 2.6 | 0.00 | 0.00 | 0.00 | 91 | 1018.6 |
| 20260905125920 | 58 | 267 | 0.9 | 3.5 | 0.00 | 0.00 | 0.00 | 92 | 1018.5 |
| 20260905125408 | 58 | 114 | 0.9 | 3.5 | 0.00 | 0.00 | 0.00 | 94 | 1018.4 |
| 20260905125138 | 57 | 212 | 0.9 | 3.5 | 0.00 | 0.00 | 0.00 | 94 | 1018.5 |
| 20260905124408 | 56 | 217 | 0.9 | 3.5 | 0.00 | 0.00 | 0.00 | 95 | 1018.5 |
| 20260905123853 | 56 | 125 | 0.0 | 2.6 | 0.00 | 0.00 | 0.00 | 95 | 1018.4 |
| 20260905123352 | 56 | 219 | 0.0 | 2.6 | 0.00 | 0.00 | 0.00 | 96 | 1018.5 |
| 20260905123124 | 56 | 220 | 0.9 | 2.6 | 0.00 | 0.00 | 0.00 | 96 | 1018.6 |
| 20260905122325 | 55 | 279 | 0.9 | 2.6 | 0.00 | 0.00 | 0.00 | 97 | 1018.4 |
| 20260905121822 | 55 | 267 | 0.9 | 2.6 | 0.00 | 0.00 | 0.00 | 97 | 1018.5 |
| 20260905121319 | 55 | 295 | 0.9 | 3.5 | 0.00 | 0.00 | 0.00 | 98 | 1018.4 |
| 20260905120800 | 55 | 332 | 0.9 | 3.5 | 0.00 | 0.00 | 0.00 | 98 | 1018.5 |
| 20260905120234 | 55 | 311 | 0.9 | 3.5 | 0.00 | 0.00 | 0.00 | 98 | 1018.6 |
| 20260905115708 | 55 | 304 | 0.9 | 2.6 | 0.00 | 0.00 | 0.00 | 98 | 1018.4 |
| 20260905115140 | 55 | 310 | 0.9 | 1.7 | 0.00 | 0.00 | 0.00 | 98 | 1018.4 |
| 20260905114845 | 54 | 345 | 0.9 | 2.6 | 0.00 | 0.00 | 0.00 | 98 | 1018.2 |
| 20260905114109 | 54 | 343 | 0.9 | 2.6 | 0.00 | 0.00 | 0.00 | 98 | 1018.1 |
| 20260905113606 | 54 | 336 | 0.9 | 2.6 | 0.00 | 0.00 | 0.00 | 98 | 1018.3 |
| 20260905113103 | 54 | 322 | 0.9 | 3.5 | 0.00 | 0.00 | 0.00 | 98 | 1018.1 |
| 20260905112548 | 54 | 331 | 0.9 | 3.5 | 0.00 | 0.00 | 0.00 | 98 | 1018.1 |
| 20260905112045 | 54 | 0 | 0.0 | 1.7 | 0.00 | 0.00 | 0.00 | 98 | 1018.1 |
| 20260905111542 | 53 | 295 | 0.0 | 0.9 | 0.00 | 0.00 | 0.00 | 98 | 1018.0 |
| 20260905111014 | 53 | 244 | 0.0 | 1.7 | 0.00 | 0.00 | 0.00 | 98 | 1017.9 |
| 20260905110512 | 53 | 287 | 0.0 | 1.7 | 0.00 | 0.00 | 0.00 | 98 | 1017.9 |
| 20260905110007 | 53 | 264 | 0.0 | 0.9 | 0.00 | 0.00 | 0.00 | 98 | 1017.8 |
| 20260905105503 | 53 | 231 | 0.0 | 0.9 | 0.00 | 0.00 | 0.00 | 98 | 1017.6 |
| 20260905105230 | 53 | 231 | 0.0 | 1.7 | 0.00 | 0.00 | 0.00 | 98 | 1017.5 |
| 20260905104451 | 53 | 240 | 0.0 | 1.7 | 0.00 | 0.00 | 0.00 | 98 | 1017.6 |
| 20260905103949 | 53 | 303 | 0.0 | 1.7 | 0.00 | 0.00 | 0.00 | 98 | 1017.5 |
| 20260905103438 | 52 | 303 | 0.0 | 1.7 | 0.00 | 0.00 | 0.00 | 98 | 1017.3 |
| 20260905102936 | 52 | 303 | 0.0 | 1.7 | 0.00 | 0.00 | 0.00 | 98 | 1017.4 |
| 20260905102437 | 52 | 303 | 0.0 | 1.7 | 0.00 | 0.00 | 0.00 | 98 | 1017.4 |
| 20260905101939 | 52 | 299 | 0.0 | 1.7 | 0.00 | 0.00 | 0.00 | 98 | 1017.3 |
| 20260905101409 | 52 | 299 | 0.0 | 1.7 | 0.00 | 0.00 | 0.00 | 98 | 1017.3 |
| 20260905100907 | 52 | 343 | 0.0 | 0.9 | 0.00 | 0.00 | 0.00 | 98 | 1017.3 |
| 20260905100402 | 51 | 120 | 0.0 | 0.0 | 0.00 | 0.00 | 0.00 | 98 | 1017.3 |
| 20260905095859 | 51 | 120 | 0.0 | 0.0 | 0.00 | 0.00 | 0.00 | 98 | 1017.2 |
| 20260905095354 | 51 | 120 | 0.0 | 0.0 | 0.00 | 0.00 | 0.00 | 98 | 1016.9 |
| 20260905094852 | 51 | 120 | 0.0 | 0.0 | 0.00 | 0.00 | 0.00 | 98 | 1017.0 |
| 20260905094559 | 51 | 120 | 0.0 | 0.0 | 0.00 | 0.00 | 0.00 | 98 | 1017.0 |
| 20260905093801 | 51 | 120 | 0.0 | 0.0 | 0.00 | 0.00 | 0.00 | 98 | 1017.0 |
| 20260905093509 | 51 | 120 | 0.0 | 0.0 | 0.00 | 0.00 | 0.00 | 98 | 1016.9 |
| 20260905092739 | 51 | 120 | 0.0 | 0.0 | 0.00 | 0.00 | 0.00 | 98 | 1016.7 |
| 20260905092210 | 51 | 120 | 0.0 | 0.0 | 0.00 | 0.00 | 0.00 | 98 | 1016.7 |
| 20260905091645 | 51 | 120 | 0.0 | 0.9 | 0.00 | 0.00 | 0.00 | 98 | 1016.8 |
| 20260905091142 | 51 | 120 | 0.0 | 0.9 | 0.00 | 0.00 | 0.00 | 98 | 1016.6 |
| 20260905090901 | 51 | 120 | 0.0 | 0.9 | 0.00 | 0.00 | 0.00 | 98 | 1016.6 |
| 20260905090130 | 51 | 120 | 0.0 | 0.9 | 0.00 | 0.00 | 0.00 | 98 | 1016.5 |
| 20260905085623 | 51 | 177 | 0.0 | 0.9 | 0.00 | 0.00 | 0.00 | 98 | 1016.5 |
| 20260905085119 | 51 | 177 | 0.0 | 0.9 | 0.00 | 0.00 | 0.00 | 98 | 1016.4 |
| 20260905084620 | 51 | 182 | 0.0 | 0.9 | 0.00 | 0.00 | 0.00 | 98 | 1016.4 |
| 20260905084057 | 51 | 182 | 0.0 | 0.9 | 0.00 | 0.00 | 0.00 | 98 | 1016.3 |
| 20260905083554 | 50 | 182 | 0.0 | 0.9 | 0.00 | 0.00 | 0.00 | 98 | 1016.4 |
| 20260905083318 | 50 | 255 | 0.0 | 0.0 | 0.00 | 0.00 | 0.00 | 98 | 1016.3 |
| 20260905082523 | 50 | 255 | 0.0 | 0.0 | 0.00 | 0.00 | 0.00 | 98 | 1016.2 |
| 20260905082020 | 50 | 255 | 0.0 | 0.0 | 0.00 | 0.00 | 0.00 | 98 | 1016.3 |
| 20260905081516 | 50 | 255 | 0.0 | 0.0 | 0.00 | 0.00 | 0.00 | 98 | 1016.1 |
| 20260905081508 | 50 | 255 | 0.0 | 0.0 | 0.00 | 0.00 | 0.00 | 98 | 1016.1 |
| 20260905080736 | 49 | 255 | 0.0 | 0.0 | 0.00 | 0.00 | 0.00 | 97 | 1016.2 |
| 20260905080618 | 49 | 255 | 0.0 | 0.0 | 0.00 | 0.00 | 0.00 | 97 | 1016.2 |
| 20260905075440 | 49 | 255 | 0.0 | 0.0 | 0.00 | 0.00 | 0.00 | 97 | 1016.2 |
| 20260905074915 | 49 | 255 | 0.0 | 0.0 | 0.00 | 0.00 | 0.00 | 98 | 1016.1 |
| 20260905074412 | 49 | 255 | 0.0 | 0.0 | 0.00 | 0.00 | 0.00 | 97 | 1016.1 |
| 20260905073845 | 49 | 255 | 0.0 | 0.9 | 0.00 | 0.00 | 0.00 | 97 | 1016.0 |
| 20260905073343 | 49 | 255 | 0.0 | 0.9 | 0.00 | 0.00 | 0.00 | 97 | 1015.9 |
| 20260905072820 | 48 | 255 | 0.0 | 0.0 | 0.00 | 0.00 | 0.00 | 97 | 1016.0 |
| 20260905072248 | 48 | 255 | 0.0 | 0.0 | 0.00 | 0.00 | 0.00 | 97 | 1016.0 |
| 20260905071747 | 48 | 255 | 0.0 | 0.0 | 0.00 | 0.00 | 0.00 | 97 | 1016.0 |
| 20260905071224 | 48 | 255 | 0.0 | 0.0 | 0.00 | 0.00 | 0.00 | 97 | 1016.0 |
| 20260905070716 | 48 | 255 | 0.0 | 0.0 | 0.00 | 0.00 | 0.00 | 97 | 1016.0 |
| 20260905070218 | 48 | 255 | 0.0 | 0.9 | 0.00 | 0.00 | 0.00 | 97 | 1015.9 |
| 20260905065713 | 48 | 255 | 0.0 | 0.9 | 0.00 | 0.00 | 0.00 | 97 | 1016.0 |
| 20260905065212 | 48 | 255 | 0.0 | 0.0 | 0.00 | 0.00 | 0.00 | 97 | 1015.9 |
| 20260905064708 | 48 | 255 | 0.0 | 0.0 | 0.00 | 0.00 | 0.00 | 97 | 1015.9 |
| 20260905064206 | 48 | 255 | 0.0 | 0.0 | 0.00 | 0.00 | 0.00 | 97 | 1015.9 |
| 20260905063658 | 48 | 255 | 0.0 | 0.0 | 0.00 | 0.00 | 0.00 | 97 | 1015.8 |
| 20260905063200 | 48 | 255 | 0.0 | 0.0 | 0.00 | 0.00 | 0.00 | 97 | 1015.8 |
| 20260905062905 | 48 | 255 | 0.0 | 0.0 | 0.00 | 0.00 | 0.00 | 97 | 1015.7 |